Regional Weather Roundup
Issued by NWS

Home | Current Version | Previous Version | Graphics & Text | Print | Product List | Glossary Off
Versions: 1 2 3 4 5 6 7 8 9 10 11 12 13 14 15 16 17 18 19 20 21 22 23 24 25 26 27 28 29 30 31 32 33 34 35 36 37 38 39 40 41 42 43 44 45 46 47 48 49 50

000
ASUS43 KDMX 210806
RWRIA

WEATHER ROUNDUP FOR IOWA
NATIONAL WEATHER SERVICE DES MOINES IA
300 AM CDT FRI JUL 21 2017

NOTE: "FAIR" INDICATES FEW OR NO CLOUDS BELOW 12,000 FEET WITH NO
SIGNIFICANT WEATHER AND/OR OBSTRUCTIONS TO VISIBILITY.

* - THESE STATIONS ARE NOT NWS STATIONS...THUS NOT UNDER NWS
QUALITY CONTROL.  THEY ALSO DO NOT REPORT WEATHER SUCH
AS PRECIPITATION OR FOG.

IAZ001>003-012>014-020>022-031>034-043>046-210900-
   NORTHWEST IOWA

CITY           SKY/WX    TMP DP  RH WIND       PRES   REMARKS
CARROLL *      CLOUDY    72  72 100 SE5       29.92F
CHEROKEE *     PTCLDY    73  68  86 E5        29.92S
DENISON *      CLOUDY    73  70  88 E5        29.92F
ORANGE CITY *  CLOUDY    75  72  88 E7        29.91F
SHELDON *      CLOUDY    73  70  88 E8        29.90F
SIOUX CITY     CLOUDY    74  70  87 SE8       29.85F
SPENCER        LGT RAIN  75  68  78 SE10      29.94F
STORM LAKE *   PTCLDY    70  66  88 SE7       29.93F
$$

IAZ055>058-069>071-079>083-090>094-210900-
   SOUTHWEST IOWA

CITY           SKY/WX    TMP DP  RH WIND       PRES   REMARKS
ATLANTIC *     CLOUDY    81  73  78 CALM      29.91F HX  85
AUDUBON *      CLOUDY    73  70  88 CALM      29.94F
CLARINDA *       N/A     81  75  83 S6        29.94S HX  86
COUNCIL BLFS * CLOUDY    84  73  70 S10       29.90F HX  91
CRESTON *      CLOUDY    81  77  89 S6        29.96S HX  88
HARLAN  *      CLOUDY    77  73  88 CALM      29.94F
LAMONI         CLOUDY    81  77  88 S5        29.95F HX  88
RED OAK *      CLOUDY    81  75  83 CALM      29.91F HX  86
SHENANDOAH *   CLOUDY    82  73  74 SW5       29.91S HX  88
$$

IAZ047>049-059>061-072>074-084-210900-
   CENTRAL IOWA

CITY           SKY/WX    TMP DP  RH WIND       PRES   REMARKS
AMES           CLOUDY    72  72 100 CALM      29.93F
ANKENY *       MOCLDY    73  70  88 CALM      29.94S
BOONE *        MOCLDY    72  70  94 E5        29.93F
CHARITON *     CLOUDY    79  73  83 SE6       29.94S HX  82
DES MOINES     CLOUDY    76  72  87 E6        29.93R
GRINNELL*      CLOUDY    73  69  90 E6        29.96S
KNOXVILLE *    CLOUDY    75  72  88 SE6       29.93S
MARSHALLTOWN   CLOUDY    71  71 100 E5        29.94S
NEWTON *       CLOUDY    73  70  88 E6        29.95R
PELLA *        CLOUDY    74  72  93 CALM      29.96R
$$

IAZ004>006-015-016-023>025-035-036-210900-
   NORTH CENTRAL IOWA

CITY           SKY/WX    TMP DP  RH WIND       PRES   REMARKS
ALGONA *       MOCLDY    75  73  94 SE6       29.94F
CLARION *      CLOUDY    73  73 100 SE5       29.94F
ESTHERVILLE    CLOUDY    73  72  96 E6        29.94F
FORT DODGE *   CLOUDY    73  70  88 E5        29.95F
MASON CITY     CLOUDY    71  69  93 NE5       29.97F
FOREST CITY *  MOCLDY    73  72  94 E3        29.96F
WEBSTER CITY * CLOUDY    73  72  94 SE6       29.92F
IOWA FALLS *   MOCLDY    72  70  93 CALM      29.96F
$$

IAZ007>011-017>019-026>030-037>042-050>054-066-210900-
   NORTHEAST IOWA

CITY           SKY/WX    TMP DP  RH WIND       PRES   REMARKS
CEDAR RAPIDS   CLOUDY    71  71 100 S5        29.94F
CHARLES CITY * CLOUDY    72  72 100 E6        29.96F
DECORAH *      CLOUDY    70  68  94 E6        29.96F
DUBUQUE        CLOUDY    72  68  87 E6        29.97F
MONTICELLO *   CLOUDY    72  72 100 SE3       29.95S
OELWEIN *      CLOUDY    70  70 100 S8        29.97S
WATERLOO       CLOUDY    72  67  84 SW3       29.94F
$$

IAZ064-065-067-068-078-210900-
   EAST CENTRAL IOWA

CITY           SKY/WX    TMP DP  RH WIND       PRES   REMARKS
DAVENPORT      LGT RAIN  71  70  96 SE8       29.98F
IOWA CITY      LGT RAIN  74  73  97 CALM      29.95F
MT. PLEASANT * CLOUDY    73  71  95 NE5       29.97F
MUSCATINE *    LGT RAIN  73  72  94 CALM      29.95F
QUAD CITIES    TSTM      73  70  90 CALM      29.98F FOG
$$

IAZ062-063-075>077-085>089-095>099-210900-
   SOUTHEAST IOWA

CITY           SKY/WX    TMP DP  RH WIND       PRES   REMARKS
BURLINGTON     CLOUDY    78  72  81 NE13      29.96S HX  80
FAIRFIELD *    CLOUDY    73  70  88 NE8       29.98R
FORT MADISON * CLOUDY    75  72  88 NE3       29.97F
KEOKUK *       MOCLDY    79  72  78 N9        29.97R HX  82
OSKALOOSA *      N/A     74  70  89 E6        29.96F
CENTERVILLE *    N/A     81  77  89 CALM      29.97S HX  88
OTTUMWA        CLOUDY    76  72  87 E6        29.95R
WASHINGTON *   CLOUDY    72  72 100 NE7       29.98R
$$

ABBREVIATIONS USED IN REMARKS
   TC - TEMPERATURES IN CELSIUS
  WCI - WIND CHILL INDEX
   HX - HEAT INDEX
  VSB - VISIBILITY
$$





USA.gov is the U.S. government's official web portal to all federal, state and local government web resources and services.